Tracking 35237 objects as of 5-Sep-2026
HD Live streaming from Space Station
objects crossing your sky now

ELECTRON R/B


ELECTRON R/B is no longer on orbit


NORAD ID: 67223
Int'l Code: 2025-305E
Launch date: December 18, 2025
Source: United States (US)
Launch site: WALLOPS ISLAND (WLPIS)
Decay date: 2026-04-02

Note: This is a ROCKET BODY
Your satellite tracking list
Your tracking list is empty




NASA's NSSDC Master Catalog

Two Line Element Set (TLE):
1 67223U 25305E   26092.86443249  .15252796  10618-4  87668-3 0  9999
2 67223  44.9587  68.6394 0006302  60.8918 299.2638 16.41630620 16586
Source of the keplerian elements: AFSPC